Pagina principală
METAR-TAF:

METAR-TAF

Aeroporturi :

Stampede Pass, Washington, Statele Unite ale Americii

Latitudine: 47-16-36N, longitudine: 121-20-14W, elevație: 1207 m

Observații meteo curente

Raportul a fost făcut în urmă cu 47 de minute, la 04:56 UTC
Vânt 5 kt de la Sud/Sud-vest
Temperatură 17°C
Umiditate 72%
Presiune 1021 hPa
Vizibilitate: 16.1 km
Cer senin

METAR: KSMP 140456Z AUTO 21005KT 10SM CLR 17/12 A3014 RMK AO2 SLP176 T01720117

Ora: 22:43 (05:43 UTC)


TAF: lipsă

Observații și prognoze meteo pentru peste 4.000 de aeroporturi (rapoarte METAR și TAF).

Stațiile disponibile sunt reprezentate pe hartă prin puncte galbene și roșii.

Țineți indicatorul mouse-ului pe punctul dorit pentru a vedea denumirea stației.

Apoi, faceți clic pentru a vedea observațiile și prognozele meteorologice.

Pentru a schimba harta: Pentru mărire, faceți clic pe butoanele verzi cu cruce neagră; pentru micșorare, pe butonul verde cu o liniuță; pentru hărți învecinate, pe săgețile verzi.


METAR-TAF: